• In Germany
  • List of Countries
  • For 7 days
  • Water Temperature
  • Satellite Maps
  • Weather Map
  • Weather Widgets
  • user-avatar
    Login

    Hourly Weather Ladyzheno

    Today, 24 April, Tuesday

    Time Temperature Precipitation Wind Pressure Humidity
    00:00 +4°C° 0 mm 1 mps 740 mmHg 59%
    01:00 +2°C° 0 mm 2 mps 740 mmHg 60%
    02:00 +2°C° 0 mm 2 mps 740 mmHg 62%
    03:00 +2°C° 0 mm 2 mps 740 mmHg 63%
    04:00 +2°C° 0 mm 2 mps 740 mmHg 64%
    05:00 +1°C° 0 mm 2 mps 740 mmHg 65%
    06:00 +3°C° 0 mm 2 mps 740 mmHg 61%
    07:00 +4°C° 0 mm 3 mps 739 mmHg 57%
    08:00 +7°C° 0 mm 3 mps 739 mmHg 53%
    09:00 +8°C° 0 mm 3 mps 739 mmHg 54%
    10:00 +9°C° 0 mm 3 mps 739 mmHg 54%
    11:00 +8°C° 0 mm 4 mps 739 mmHg 55%
    12:00 +10°C° 0 mm 4 mps 738 mmHg 56%
    13:00 +10°C° 0 mm 4 mps 738 mmHg 57%
    14:00 +10°C° 0 mm 4 mps 738 mmHg 58%
    15:00 +10°C° 0 mm 4 mps 737 mmHg 62%
    16:00 +10°C° 0 mm 3 mps 737 mmHg 65%
    17:00 +9°C° 0 mm 3 mps 737 mmHg 69%
    18:00 +9°C° 0 mm 3 mps 737 mmHg 73%
    19:00 +8°C° 0 mm 2 mps 736 mmHg 76%
    20:00 +8°C° 0 mm 2 mps 736 mmHg 80%
    21:00 +7°C° 0 mm 2 mps 736 mmHg 84%
    22:00 +7°C° 0 mm 2 mps 736 mmHg 87%
    23:00 +7°C° 0 mm 2 mps 736 mmHg 91%

    Tomorrow, 25 April, Wednesday

    Time Temperature Precipitation Wind Pressure Humidity
    00:00 +7°C° 0 mm 2 mps 735 mmHg 92%
    01:00 +7°C° 0 mm 2 mps 735 mmHg 93%
    02:00 +6°C° 0 mm 2 mps 735 mmHg 94%
    03:00 +6°C° 0 mm 2 mps 735 mmHg 94%
    04:00 +4°C° 0 mm 3 mps 735 mmHg 94%
    05:00 +4°C° 0 mm 3 mps 735 mmHg 94%
    06:00 +7°C° 0 mm 3 mps 735 mmHg 86%
    07:00 +8°C° 0 mm 3 mps 735 mmHg 78%
    08:00 +10°C° 0 mm 3 mps 735 mmHg 70%
    09:00 +11°C° 0 mm 4 mps 735 mmHg 68%
    10:00 +12°C° 0 mm 5 mps 735 mmHg 66%
    11:00 +13°C° 0 mm 5 mps 735 mmHg 65%
    12:00 +13°C° 0.4 mm 6 mps 735 mmHg 65%
    13:00 +14°C° 0.4 mm 6 mps 735 mmHg 65%
    14:00 +14°C° 0.4 mm 7 mps 734 mmHg 65%
    15:00 +13°C° 0.3 mm 6 mps 734 mmHg 66%
    16:00 +13°C° 0.3 mm 5 mps 734 mmHg 67%
    17:00 +12°C° 0.3 mm 4 mps 734 mmHg 68%
    18:00 +11°C° 0 mm 4 mps 734 mmHg 71%
    19:00 +10°C° 0 mm 3 mps 735 mmHg 74%
    20:00 +9°C° 0 mm 3 mps 735 mmHg 77%
    21:00 +8°C° 0 mm 3 mps 735 mmHg 81%
    22:00 +8°C° 0 mm 3 mps 735 mmHg 85%
    23:00 +7°C° 0 mm 2 mps 735 mmHg 89%

    Day after tomorrow, 26 April, Thursday

    Time Temperature Precipitation Wind Pressure Humidity
    00:00 +7°C° 0 mm 2 mps 734 mmHg 90%
    01:00 +7°C° 0 mm 2 mps 734 mmHg 92%
    02:00 +7°C° 0 mm 2 mps 734 mmHg 94%
    03:00 +7°C° 0.6 mm 2 mps 734 mmHg 95%
    04:00 +7°C° 0.6 mm 2 mps 733 mmHg 96%
    05:00 +8°C° 0.6 mm 1 mps 733 mmHg 97%
    06:00 +8°C° 1 mm 2 mps 733 mmHg 96%
    07:00 +8°C° 1 mm 2 mps 733 mmHg 94%
    08:00 +9°C° 1 mm 2 mps 733 mmHg 93%
    09:00 +10°C° 0.4 mm 3 mps 733 mmHg 89%
    10:00 +11°C° 0.4 mm 4 mps 733 mmHg 85%
    11:00 +12°C° 0.4 mm 5 mps 734 mmHg 80%
    12:00 +13°C° 0.1 mm 5 mps 734 mmHg 72%
    13:00 +14°C° 0.1 mm 6 mps 734 mmHg 64%
    14:00 +15°C° 0.1 mm 6 mps 734 mmHg 56%
    15:00 +15°C° 0 mm 5 mps 734 mmHg 56%
    16:00 +14°C° 0 mm 4 mps 735 mmHg 56%
    17:00 +14°C° 0 mm 4 mps 735 mmHg 57%
    18:00 +13°C° 0 mm 3 mps 735 mmHg 63%
    19:00 +12°C° 0 mm 2 mps 736 mmHg 69%
    20:00 +9°C° 0 mm 2 mps 736 mmHg 75%
    21:00 +9°C° 0 mm 2 mps 737 mmHg 78%
    22:00 +8°C° 0 mm 2 mps 737 mmHg 81%
    23:00 +8°C° 0 mm 2 mps 737 mmHg 83%

    27 April, Friday

    Time Temperature Precipitation Wind Pressure Humidity
    00:00 +8°C° 0 mm 2 mps 737 mmHg 84%
    01:00 +8°C° 0 mm 2 mps 737 mmHg 84%
    02:00 +8°C° 0 mm 2 mps 737 mmHg 84%
    03:00 +8°C° 0 mm 2 mps 737 mmHg 85%
    04:00 +8°C° 0 mm 2 mps 737 mmHg 86%
    05:00 +8°C° 0 mm 3 mps 737 mmHg 88%
    06:00 +9°C° 0 mm 3 mps 737 mmHg 83%
    07:00 +10°C° 0 mm 3 mps 738 mmHg 79%
    08:00 +10°C° 0 mm 3 mps 738 mmHg 75%
    09:00 +11°C° 0.3 mm 4 mps 738 mmHg 70%
    10:00 +12°C° 0.3 mm 4 mps 738 mmHg 65%
    11:00 +13°C° 0.3 mm 4 mps 738 mmHg 61%
    12:00 +13°C° 0.5 mm 5 mps 738 mmHg 59%
    13:00 +13°C° 0.5 mm 5 mps 738 mmHg 58%
    14:00 +13°C° 0.5 mm 6 mps 738 mmHg 57%
    15:00 +13°C° 0.2 mm 5 mps 739 mmHg 57%
    16:00 +13°C° 0.2 mm 5 mps 739 mmHg 58%
    17:00 +13°C° 0.2 mm 5 mps 740 mmHg 59%
    18:00 +11°C° 0 mm 4 mps 740 mmHg 64%
    19:00 +10°C° 0 mm 4 mps 741 mmHg 70%
    20:00 +8°C° 0 mm 3 mps 742 mmHg 75%
    21:00 +7°C° 0 mm 3 mps 742 mmHg 78%
    22:00 +7°C° 0 mm 3 mps 742 mmHg 80%
    23:00 +5°C° 0 mm 3 mps 743 mmHg 82%

    28 April, Saturday

    Time Temperature Precipitation Wind Pressure Humidity
    00:00 +5°C° 0 mm 3 mps 743 mmHg 85%
    01:00 +5°C° 0 mm 2 mps 744 mmHg 87%
    02:00 +4°C° 0 mm 2 mps 744 mmHg 89%
    03:00 +4°C° 0 mm 2 mps 744 mmHg 89%
    04:00 +4°C° 0 mm 2 mps 745 mmHg 89%
    05:00 +4°C° 0 mm 2 mps 745 mmHg 89%
    06:00 +6°C° 0 mm 2 mps 745 mmHg 81%
    07:00 +8°C° 0 mm 2 mps 745 mmHg 73%
    08:00 +10°C° 0 mm 2 mps 746 mmHg 65%
    09:00 +12°C° 0 mm 2 mps 746 mmHg 59%
    10:00 +12°C° 0 mm 3 mps 746 mmHg 54%
    11:00 +13°C° 0 mm 3 mps 746 mmHg 48%
    12:00 +14°C° 0 mm 3 mps 746 mmHg 46%
    13:00 +14°C° 0 mm 3 mps 746 mmHg 44%
    14:00 +16°C° 0 mm 3 mps 745 mmHg 42%
    15:00 +16°C° 0 mm 2 mps 745 mmHg 44%
    16:00 +16°C° 0 mm 2 mps 745 mmHg 46%
    17:00 +16°C° 0 mm 2 mps 745 mmHg 48%
    18:00 +14°C° 0 mm 2 mps 744 mmHg 54%
    19:00 +12°C° 0 mm 2 mps 744 mmHg 60%
    20:00 +10°C° 0 mm 2 mps 744 mmHg 66%
    21:00 +10°C° 0 mm 2 mps 744 mmHg 67%
    22:00 +9°C° 0 mm 3 mps 744 mmHg 68%
    23:00 +9°C° 0 mm 3 mps 744 mmHg 69%

    29 April, Sunday

    Time Temperature Precipitation Wind Pressure Humidity
    00:00 +9°C° 0.1 mm 3 mps 743 mmHg 70%
    01:00 +9°C° 0.1 mm 3 mps 743 mmHg 71%
    02:00 +9°C° 0.1 mm 3 mps 743 mmHg 72%
    03:00 +9°C° 0.6 mm 3 mps 743 mmHg 75%
    04:00 +9°C° 0.6 mm 3 mps 742 mmHg 79%
    05:00 +9°C° 0.6 mm 3 mps 742 mmHg 82%
    06:00 +9°C° 0.8 mm 3 mps 742 mmHg 85%
    07:00 +9°C° 0.8 mm 3 mps 742 mmHg 88%
    08:00 +9°C° 0.8 mm 2 mps 742 mmHg 91%
    09:00 +10°C° 0.2 mm 2 mps 742 mmHg 90%
    10:00 +12°C° 0.2 mm 2 mps 742 mmHg 89%
    11:00 +12°C° 0.2 mm 1 mps 742 mmHg 88%
    12:00 +13°C° 0 mm 1 mps 742 mmHg 84%
    13:00 +14°C° 0 mm 1 mps 742 mmHg 81%
    14:00 +15°C° 0 mm 1 mps 742 mmHg 78%
    15:00 +15°C° 0 mm 1 mps 742 mmHg 78%
    16:00 +15°C° 0 mm 1 mps 742 mmHg 77%
    17:00 +15°C° 0 mm 1 mps 742 mmHg 76%
    18:00 +13°C° 0 mm 1 mps 742 mmHg 80%
    19:00 +12°C° 0 mm 1 mps 743 mmHg 85%
    20:00 +10°C° 0 mm 1 mps 743 mmHg 89%
    21:00 +10°C° 0 mm 1 mps 743 mmHg 89%
    22:00 +9°C° 0 mm 1 mps 743 mmHg 90%
    23:00 +9°C° 0 mm 1 mps 743 mmHg 90%
    Show more